Terminal Aerodrome Forecast
Issued by NWS Portland, OR

Home | Current Version | Previous Version | Text Only | Print | Product List | Glossary On
Versions: 1 2 3 4 5 6 7 8 9 10 11 12 13 14 15 16 17 18 19 20 21 22 23 24 25 26
000
FTUS46 KPQR 211124
TAFPDX
TAF
KPDX 211124Z 2112/2212 VRB03KT P6SM OVC180
     FM211700 VRB04KT P6SM OVC100
     FM220200 32010KT P6SM -RA OVC040
     FM220500 30011KT P6SM -RA OVC025=

USA.gov is the U.S. government's official web portal to all federal, state and local government web resources and services.